#datetime,building,power
2024-04-11T00:00:00,rvs,16.26
2024-04-11T00:01:00,rvs,15.97
2024-04-11T00:02:00,rvs,16.66
2024-04-11T00:03:00,rvs,17.06
2024-04-11T00:04:00,rvs,10.82
2024-04-11T00:05:00,rvs,11.65
2024-04-11T00:06:00,rvs,11.97
2024-04-11T00:07:00,rvs,10.99
2024-04-11T00:08:00,rvs,11.15
2024-04-11T00:09:00,rvs,11.08
2024-04-11T00:10:00,rvs,15.61
2024-04-11T00:11:00,rvs,15.57
2024-04-11T00:12:00,rvs,15.44
2024-04-11T00:13:00,rvs,15.49
2024-04-11T00:14:00,rvs,14.86
2024-04-11T00:15:00,rvs,14.80
2024-04-11T00:16:00,rvs,18.92
2024-04-11T00:17:00,rvs,18.82
2024-04-11T00:18:00,rvs,19.09
2024-04-11T00:19:00,rvs,18.79
2024-04-11T00:20:00,rvs,18.90
2024-04-11T00:21:00,rvs,18.58
2024-04-11T00:22:00,rvs,18.60
2024-04-11T00:23:00,rvs,21.66
2024-04-11T00:24:00,rvs,22.63
2024-04-11T00:25:00,rvs,22.40
2024-04-11T00:26:00,rvs,21.82
2024-04-11T00:27:00,rvs,21.52
2024-04-11T00:28:00,rvs,22.56
2024-04-11T00:29:00,rvs,23.38
2024-04-11T00:30:00,rvs,16.30
2024-04-11T00:31:00,rvs,16.25
2024-04-11T00:32:00,rvs,20.96
2024-04-11T00:33:00,rvs,21.06
2024-04-11T00:34:00,rvs,22.34
2024-04-11T00:35:00,rvs,19.19
2024-04-11T00:36:00,rvs,18.88
2024-04-11T00:37:00,rvs,16.71
2024-04-11T00:38:00,rvs,18.69
2024-04-11T00:39:00,rvs,17.78
2024-04-11T00:40:00,rvs,11.65
2024-04-11T00:41:00,rvs,11.56
2024-04-11T00:42:00,rvs,11.56
2024-04-11T00:43:00,rvs,13.00
2024-04-11T00:44:00,rvs,16.55
2024-04-11T00:45:00,rvs,16.65
2024-04-11T00:46:00,rvs,16.61
2024-04-11T00:47:00,rvs,15.72
2024-04-11T00:48:00,rvs,11.36
2024-04-11T00:49:00,rvs,11.19
2024-04-11T00:50:00,rvs,11.76
2024-04-11T00:51:00,rvs,10.98
2024-04-11T00:52:00,rvs,15.32
2024-04-11T00:53:00,rvs,15.12
2024-04-11T00:54:00,rvs,14.86
2024-04-11T00:55:00,rvs,14.95
2024-04-11T00:56:00,rvs,10.88
2024-04-11T00:57:00,rvs,10.84
2024-04-11T00:58:00,rvs,10.90
2024-04-11T00:59:00,rvs,11.21
2024-04-11T01:00:00,rvs,10.92
2024-04-11T01:01:00,rvs,10.49
2024-04-11T01:02:00,rvs,13.58
2024-04-11T01:03:00,rvs,14.69
2024-04-11T01:04:00,rvs,15.78
2024-04-11T01:05:00,rvs,20.64
2024-04-11T01:06:00,rvs,21.30
2024-04-11T01:07:00,rvs,21.11
2024-04-11T01:08:00,rvs,47.05
2024-04-11T01:09:00,rvs,44.41
2024-04-11T01:10:00,rvs,44.56
2024-04-11T01:11:00,rvs,44.25
2024-04-11T01:12:00,rvs,30.79
2024-04-11T01:13:00,rvs,27.67
2024-04-11T01:14:00,rvs,10.90
2024-04-11T01:15:00,rvs,10.89
2024-04-11T01:16:00,rvs,10.39
2024-04-11T01:17:00,rvs,10.66
2024-04-11T01:18:00,rvs,10.50
2024-04-11T01:19:00,rvs,10.51
2024-04-11T01:20:00,rvs,10.31
2024-04-11T01:21:00,rvs,10.42
2024-04-11T01:22:00,rvs,10.45
2024-04-11T01:23:00,rvs,10.23
2024-04-11T01:24:00,rvs,9.84
2024-04-11T01:25:00,rvs,9.61
2024-04-11T01:26:00,rvs,13.35
2024-04-11T01:27:00,rvs,15.34
2024-04-11T01:28:00,rvs,15.52
2024-04-11T01:29:00,rvs,16.20
2024-04-11T01:30:00,rvs,16.96
2024-04-11T01:31:00,rvs,13.92
2024-04-11T01:32:00,rvs,15.14
2024-04-11T01:33:00,rvs,11.19
2024-04-11T01:34:00,rvs,10.97
2024-04-11T01:35:00,rvs,10.53
2024-04-11T01:36:00,rvs,9.96
2024-04-11T01:37:00,rvs,10.86
2024-04-11T01:38:00,rvs,11.58
2024-04-11T01:39:00,rvs,11.29
2024-04-11T01:40:00,rvs,11.38
2024-04-11T01:41:00,rvs,11.66
2024-04-11T01:42:00,rvs,10.86
2024-04-11T01:43:00,rvs,10.26
2024-04-11T01:44:00,rvs,11.04
2024-04-11T01:45:00,rvs,10.00
2024-04-11T01:46:00,rvs,9.73
2024-04-11T01:47:00,rvs,10.39
2024-04-11T01:48:00,rvs,10.35
2024-04-11T01:49:00,rvs,9.74
2024-04-11T01:50:00,rvs,10.18
2024-04-11T01:51:00,rvs,11.84
2024-04-11T01:52:00,rvs,14.94
2024-04-11T01:53:00,rvs,15.46
2024-04-11T01:54:00,rvs,15.88
2024-04-11T01:55:00,rvs,15.98
2024-04-11T01:56:00,rvs,12.69
2024-04-11T01:57:00,rvs,13.72
2024-04-11T01:58:00,rvs,9.00
2024-04-11T01:59:00,rvs,8.98
2024-04-11T02:00:00,rvs,8.94
2024-04-11T02:01:00,rvs,8.99
2024-04-11T02:02:00,rvs,9.97
2024-04-11T02:03:00,rvs,9.79
2024-04-11T02:04:00,rvs,9.80
2024-04-11T02:05:00,rvs,9.79
2024-04-11T02:06:00,rvs,10.21
2024-04-11T02:07:00,rvs,10.21
2024-04-11T02:08:00,rvs,10.50
2024-04-11T02:09:00,rvs,10.43
2024-04-11T02:10:00,rvs,11.03
2024-04-11T02:11:00,rvs,10.98
2024-04-11T02:12:00,rvs,11.02
2024-04-11T02:13:00,rvs,10.99
2024-04-11T02:14:00,rvs,10.28
2024-04-11T02:15:00,rvs,11.58
2024-04-11T02:16:00,rvs,11.58
2024-04-11T02:17:00,rvs,12.23
2024-04-11T02:18:00,rvs,11.84
2024-04-11T02:19:00,rvs,12.11
2024-04-11T02:20:00,rvs,10.16
2024-04-11T02:21:00,rvs,10.38
2024-04-11T02:22:00,rvs,14.53
2024-04-11T02:23:00,rvs,14.08
2024-04-11T02:24:00,rvs,13.57
2024-04-11T02:25:00,rvs,9.09
2024-04-11T02:26:00,rvs,9.52
2024-04-11T02:27:00,rvs,9.66
2024-04-11T02:28:00,rvs,8.83
2024-04-11T02:29:00,rvs,12.93
2024-04-11T02:30:00,rvs,13.89
2024-04-11T02:31:00,rvs,14.79
2024-04-11T02:32:00,rvs,13.62
2024-04-11T02:33:00,rvs,12.74
2024-04-11T02:34:00,rvs,13.71
2024-04-11T02:35:00,rvs,9.18
2024-04-11T02:36:00,rvs,10.39
2024-04-11T02:37:00,rvs,10.19
2024-04-11T02:38:00,rvs,10.03
2024-04-11T02:39:00,rvs,9.99
2024-04-11T02:40:00,rvs,10.52
2024-04-11T02:41:00,rvs,9.78
2024-04-11T02:42:00,rvs,9.76
2024-04-11T02:43:00,rvs,9.56
2024-04-11T02:44:00,rvs,9.46
2024-04-11T02:45:00,rvs,9.55
2024-04-11T02:46:00,rvs,8.73
2024-04-11T02:47:00,rvs,8.78
2024-04-11T02:48:00,rvs,8.70
2024-04-11T02:49:00,rvs,8.52
2024-04-11T02:50:00,rvs,8.40
2024-04-11T02:51:00,rvs,8.51
2024-04-11T02:52:00,rvs,8.55
2024-04-11T02:53:00,rvs,8.63
2024-04-11T02:54:00,rvs,8.73
2024-04-11T02:55:00,rvs,9.13
2024-04-11T02:56:00,rvs,9.03
2024-04-11T02:57:00,rvs,9.12
2024-04-11T02:58:00,rvs,8.92
2024-04-11T02:59:00,rvs,8.84
2024-04-11T03:00:00,rvs,8.77
2024-04-11T03:01:00,rvs,8.79
2024-04-11T03:02:00,rvs,8.68
2024-04-11T03:03:00,rvs,10.32
2024-04-11T03:04:00,rvs,10.15
2024-04-11T03:05:00,rvs,10.22
2024-04-11T03:06:00,rvs,10.23
2024-04-11T03:07:00,rvs,8.77
2024-04-11T03:08:00,rvs,8.76
2024-04-11T03:09:00,rvs,8.98
2024-04-11T03:10:00,rvs,8.85
2024-04-11T03:11:00,rvs,8.85
2024-04-11T03:12:00,rvs,8.95
2024-04-11T03:13:00,rvs,9.06
2024-04-11T03:14:00,rvs,9.07
2024-04-11T03:15:00,rvs,9.65
2024-04-11T03:16:00,rvs,9.69
2024-04-11T03:17:00,rvs,9.87
2024-04-11T03:18:00,rvs,9.37
2024-04-11T03:19:00,rvs,9.11
2024-04-11T03:20:00,rvs,15.51
2024-04-11T03:21:00,rvs,17.92
2024-04-11T03:22:00,rvs,18.71
2024-04-11T03:23:00,rvs,20.68
2024-04-11T03:24:00,rvs,20.00
2024-04-11T03:25:00,rvs,19.48
2024-04-11T03:26:00,rvs,19.69
2024-04-11T03:27:00,rvs,14.68
2024-04-11T03:28:00,rvs,14.36
2024-04-11T03:29:00,rvs,14.39
2024-04-11T03:30:00,rvs,13.94
2024-04-11T03:31:00,rvs,13.63
2024-04-11T03:32:00,rvs,13.55
2024-04-11T03:33:00,rvs,13.54
2024-04-11T03:34:00,rvs,8.72
2024-04-11T03:35:00,rvs,9.29
2024-04-11T03:36:00,rvs,8.69
2024-04-11T03:37:00,rvs,8.53
2024-04-11T03:38:00,rvs,8.50
2024-04-11T03:39:00,rvs,8.42
2024-04-11T03:40:00,rvs,8.34
2024-04-11T03:41:00,rvs,8.29
2024-04-11T03:42:00,rvs,8.43
2024-04-11T03:43:00,rvs,8.33
2024-04-11T03:44:00,rvs,8.61
2024-04-11T03:45:00,rvs,9.30
2024-04-11T03:46:00,rvs,9.27
2024-04-11T03:47:00,rvs,9.24
2024-04-11T03:48:00,rvs,9.34
2024-04-11T03:49:00,rvs,8.56
2024-04-11T03:50:00,rvs,8.45
2024-04-11T03:51:00,rvs,8.47
2024-04-11T03:52:00,rvs,8.50
2024-04-11T03:53:00,rvs,8.52
2024-04-11T03:54:00,rvs,12.58
2024-04-11T03:55:00,rvs,13.77
2024-04-11T03:56:00,rvs,14.27
2024-04-11T03:57:00,rvs,13.63
2024-04-11T03:58:00,rvs,14.77
2024-04-11T03:59:00,rvs,14.63
2024-04-11T04:00:00,rvs,15.55
2024-04-11T04:01:00,rvs,11.14
2024-04-11T04:02:00,rvs,9.54
2024-04-11T04:03:00,rvs,9.30
2024-04-11T04:04:00,rvs,8.72
2024-04-11T04:05:00,rvs,8.68
2024-04-11T04:06:00,rvs,8.69
2024-04-11T04:07:00,rvs,8.07
2024-04-11T04:08:00,rvs,8.05
2024-04-11T04:09:00,rvs,8.42
2024-04-11T04:10:00,rvs,12.83
2024-04-11T04:11:00,rvs,12.76
2024-04-11T04:12:00,rvs,12.82
2024-04-11T04:13:00,rvs,8.44
2024-04-11T04:14:00,rvs,8.23
2024-04-11T04:15:00,rvs,8.82
2024-04-11T04:16:00,rvs,8.92
2024-04-11T04:17:00,rvs,8.98
2024-04-11T04:18:00,rvs,9.14
2024-04-11T04:19:00,rvs,9.11
2024-04-11T04:20:00,rvs,8.36
2024-04-11T04:21:00,rvs,8.46
2024-04-11T04:22:00,rvs,8.52
2024-04-11T04:23:00,rvs,8.47
2024-04-11T04:24:00,rvs,8.51
2024-04-11T04:25:00,rvs,8.46
2024-04-11T04:26:00,rvs,8.58
2024-04-11T04:27:00,rvs,8.55
2024-04-11T04:28:00,rvs,8.52
2024-04-11T04:29:00,rvs,8.54
2024-04-11T04:30:00,rvs,8.44
2024-04-11T04:31:00,rvs,11.82
2024-04-11T04:32:00,rvs,13.82
2024-04-11T04:33:00,rvs,14.47
2024-04-11T04:34:00,rvs,15.04
2024-04-11T04:35:00,rvs,13.92
2024-04-11T04:36:00,rvs,12.72
2024-04-11T04:37:00,rvs,16.07
2024-04-11T04:38:00,rvs,13.19
2024-04-11T04:39:00,rvs,14.45
2024-04-11T04:40:00,rvs,16.41
2024-04-11T04:41:00,rvs,16.33
2024-04-11T04:42:00,rvs,15.20
2024-04-11T04:43:00,rvs,14.22
2024-04-11T04:44:00,rvs,13.91
2024-04-11T04:45:00,rvs,27.90
2024-04-11T04:46:00,rvs,27.92
2024-04-11T04:47:00,rvs,28.45
2024-04-11T04:48:00,rvs,27.85
2024-04-11T04:49:00,rvs,14.86
2024-04-11T04:50:00,rvs,14.76
2024-04-11T04:51:00,rvs,8.65
2024-04-11T04:52:00,rvs,8.72
2024-04-11T04:53:00,rvs,10.40
2024-04-11T04:54:00,rvs,10.14
2024-04-11T04:55:00,rvs,10.05
2024-04-11T04:56:00,rvs,9.89
2024-04-11T04:57:00,rvs,8.50
2024-04-11T04:58:00,rvs,8.53
2024-04-11T04:59:00,rvs,8.51
2024-04-11T05:00:00,rvs,8.58
2024-04-11T05:01:00,rvs,8.40
2024-04-11T05:02:00,rvs,8.32
2024-04-11T05:03:00,rvs,8.56
2024-04-11T05:04:00,rvs,8.35
2024-04-11T05:05:00,rvs,8.38
2024-04-11T05:06:00,rvs,8.55
2024-04-11T05:07:00,rvs,8.36
2024-04-11T05:08:00,rvs,8.40
2024-04-11T05:09:00,rvs,8.50
2024-04-11T05:10:00,rvs,11.60
2024-04-11T05:11:00,rvs,12.93
2024-04-11T05:12:00,rvs,13.47
2024-04-11T05:13:00,rvs,13.96
2024-04-11T05:14:00,rvs,13.86
2024-04-11T05:15:00,rvs,12.72
2024-04-11T05:16:00,rvs,14.25
2024-04-11T05:17:00,rvs,9.66
2024-04-11T05:18:00,rvs,9.77
2024-04-11T05:19:00,rvs,9.78
2024-04-11T05:20:00,rvs,10.23
2024-04-11T05:21:00,rvs,10.05
2024-04-11T05:22:00,rvs,9.24
2024-04-11T05:23:00,rvs,9.14
2024-04-11T05:24:00,rvs,9.19
2024-04-11T05:25:00,rvs,9.31
2024-04-11T05:26:00,rvs,9.72
2024-04-11T05:27:00,rvs,9.48
2024-04-11T05:28:00,rvs,9.76
2024-04-11T05:29:00,rvs,9.91
2024-04-11T05:30:00,rvs,9.90
2024-04-11T05:31:00,rvs,9.73
2024-04-11T05:32:00,rvs,9.32
2024-04-11T05:33:00,rvs,8.96
2024-04-11T05:34:00,rvs,9.27
2024-04-11T05:35:00,rvs,8.91
2024-04-11T05:36:00,rvs,8.38
2024-04-11T05:37:00,rvs,8.46
2024-04-11T05:38:00,rvs,8.13
2024-04-11T05:39:00,rvs,8.03
2024-04-11T05:40:00,rvs,8.13
2024-04-11T05:41:00,rvs,8.04
2024-04-11T05:42:00,rvs,8.07
2024-04-11T05:43:00,rvs,8.16
2024-04-11T05:44:00,rvs,8.19
2024-04-11T05:45:00,rvs,8.17
2024-04-11T05:46:00,rvs,13.56
2024-04-11T05:47:00,rvs,14.84
2024-04-11T05:48:00,rvs,15.43
2024-04-11T05:49:00,rvs,14.57
2024-04-11T05:50:00,rvs,20.73
2024-04-11T05:51:00,rvs,21.91
2024-04-11T05:52:00,rvs,22.66
2024-04-11T05:53:00,rvs,27.68
2024-04-11T05:54:00,rvs,13.00
2024-04-11T05:55:00,rvs,12.88
2024-04-11T05:56:00,rvs,8.57
2024-04-11T05:57:00,rvs,8.97
2024-04-11T05:58:00,rvs,8.71
2024-04-11T05:59:00,rvs,8.54
2024-04-11T06:00:00,rvs,8.46
2024-04-11T06:01:00,rvs,8.38
2024-04-11T06:02:00,rvs,8.30
2024-04-11T06:03:00,rvs,8.27
2024-04-11T06:04:00,rvs,8.39
2024-04-11T06:05:00,rvs,8.44
2024-04-11T06:06:00,rvs,8.48
2024-04-11T06:07:00,rvs,8.45
2024-04-11T06:08:00,rvs,8.93
2024-04-11T06:09:00,rvs,9.02
2024-04-11T06:10:00,rvs,9.00
2024-04-11T06:11:00,rvs,8.89
2024-04-11T06:12:00,rvs,8.83
2024-04-11T06:13:00,rvs,8.86
2024-04-11T06:14:00,rvs,8.64
2024-04-11T06:15:00,rvs,8.65
2024-04-11T06:16:00,rvs,9.40
2024-04-11T06:17:00,rvs,9.60
2024-04-11T06:18:00,rvs,9.58
2024-04-11T06:19:00,rvs,13.28
2024-04-11T06:20:00,rvs,13.97
2024-04-11T06:21:00,rvs,13.44
2024-04-11T06:22:00,rvs,14.25
2024-04-11T06:23:00,rvs,14.00
2024-04-11T06:24:00,rvs,11.89
2024-04-11T06:25:00,rvs,12.62
2024-04-11T06:26:00,rvs,7.86
2024-04-11T06:27:00,rvs,7.86
2024-04-11T06:28:00,rvs,7.81
2024-04-11T06:29:00,rvs,7.86
2024-04-11T06:30:00,rvs,8.21
2024-04-11T06:31:00,rvs,8.16
2024-04-11T06:32:00,rvs,8.15
2024-04-11T06:33:00,rvs,8.28
2024-04-11T06:34:00,rvs,8.15
2024-04-11T06:35:00,rvs,8.17
2024-04-11T06:36:00,rvs,8.16
2024-04-11T06:37:00,rvs,8.08
2024-04-11T06:38:00,rvs,8.08
2024-04-11T06:39:00,rvs,8.20
2024-04-11T06:40:00,rvs,11.54
2024-04-11T06:41:00,rvs,12.71
2024-04-11T06:42:00,rvs,15.35
2024-04-11T06:43:00,rvs,16.21
2024-04-11T06:44:00,rvs,15.97
2024-04-11T06:45:00,rvs,18.19
2024-04-11T06:46:00,rvs,18.68
2024-04-11T06:47:00,rvs,18.96
2024-04-11T06:48:00,rvs,20.15
2024-04-11T06:49:00,rvs,19.79
2024-04-11T06:50:00,rvs,17.62
2024-04-11T06:51:00,rvs,13.60
2024-04-11T06:52:00,rvs,8.91
2024-04-11T06:53:00,rvs,9.58
2024-04-11T06:54:00,rvs,9.16
2024-04-11T06:55:00,rvs,9.11
2024-04-11T06:56:00,rvs,9.51
2024-04-11T06:57:00,rvs,9.45
2024-04-11T06:58:00,rvs,9.41
2024-04-11T06:59:00,rvs,9.13
2024-04-11T07:00:00,rvs,9.26
2024-04-11T07:01:00,rvs,9.06
2024-04-11T07:02:00,rvs,8.91
2024-04-11T07:03:00,rvs,8.98
2024-04-11T07:04:00,rvs,8.73
2024-04-11T07:05:00,rvs,9.02
2024-04-11T07:06:00,rvs,8.87
2024-04-11T07:07:00,rvs,8.72
2024-04-11T07:08:00,rvs,8.66
2024-04-11T07:09:00,rvs,8.73
2024-04-11T07:10:00,rvs,8.83
2024-04-11T07:11:00,rvs,9.24
2024-04-11T07:12:00,rvs,9.48
2024-04-11T07:13:00,rvs,10.47
2024-04-11T07:14:00,rvs,11.32
2024-04-11T07:15:00,rvs,12.80
2024-04-11T07:16:00,rvs,14.54
2024-04-11T07:17:00,rvs,15.10
2024-04-11T07:18:00,rvs,14.68
2024-04-11T07:19:00,rvs,13.01
2024-04-11T07:20:00,rvs,14.26
2024-04-11T07:21:00,rvs,9.27
2024-04-11T07:22:00,rvs,9.31
2024-04-11T07:23:00,rvs,9.80
2024-04-11T07:24:00,rvs,9.32
2024-04-11T07:25:00,rvs,9.32
2024-04-11T07:26:00,rvs,9.38
2024-04-11T07:27:00,rvs,9.48
2024-04-11T07:28:00,rvs,9.25
2024-04-11T07:29:00,rvs,9.46
2024-04-11T07:30:00,rvs,14.55
2024-04-11T07:31:00,rvs,13.74
2024-04-11T07:32:00,rvs,14.58
2024-04-11T07:33:00,rvs,10.07
2024-04-11T07:34:00,rvs,8.83
2024-04-11T07:35:00,rvs,8.83
2024-04-11T07:36:00,rvs,8.87
2024-04-11T07:37:00,rvs,8.94
2024-04-11T07:38:00,rvs,8.71
2024-04-11T07:39:00,rvs,10.35
2024-04-11T07:40:00,rvs,10.12
2024-04-11T07:41:00,rvs,9.85
2024-04-11T07:42:00,rvs,9.90
2024-04-11T07:43:00,rvs,10.58
2024-04-11T07:44:00,rvs,10.53
2024-04-11T07:45:00,rvs,10.57
2024-04-11T07:46:00,rvs,10.34
2024-04-11T07:47:00,rvs,10.43
2024-04-11T07:48:00,rvs,10.41
2024-04-11T07:49:00,rvs,9.85
2024-04-11T07:50:00,rvs,9.86
2024-04-11T07:51:00,rvs,10.25
2024-04-11T07:52:00,rvs,12.38
2024-04-11T07:53:00,rvs,14.59
2024-04-11T07:54:00,rvs,15.33
2024-04-11T07:55:00,rvs,14.93
2024-04-11T07:56:00,rvs,14.29
2024-04-11T07:57:00,rvs,13.09
2024-04-11T07:58:00,rvs,14.07
2024-04-11T07:59:00,rvs,9.49
2024-04-11T08:00:00,rvs,14.16
2024-04-11T08:01:00,rvs,13.82
2024-04-11T08:02:00,rvs,13.84
2024-04-11T08:03:00,rvs,12.79
2024-04-11T08:04:00,rvs,13.47
2024-04-11T08:05:00,rvs,13.85
2024-04-11T08:06:00,rvs,13.79
2024-04-11T08:07:00,rvs,13.80
2024-04-11T08:08:00,rvs,13.80
2024-04-11T08:09:00,rvs,14.03
2024-04-11T08:10:00,rvs,13.69
2024-04-11T08:11:00,rvs,13.88
2024-04-11T08:12:00,rvs,14.01
2024-04-11T08:13:00,rvs,13.59
2024-04-11T08:14:00,rvs,14.27
2024-04-11T08:15:00,rvs,16.05
2024-04-11T08:16:00,rvs,17.64
2024-04-11T08:17:00,rvs,19.49
2024-04-11T08:18:00,rvs,20.53
2024-04-11T08:19:00,rvs,21.14
2024-04-11T08:20:00,rvs,23.14
2024-04-11T08:21:00,rvs,20.74
2024-04-11T08:22:00,rvs,21.24
2024-04-11T08:23:00,rvs,21.14
2024-04-11T08:24:00,rvs,20.48
2024-04-11T08:25:00,rvs,19.77
2024-04-11T08:26:00,rvs,19.65
2024-04-11T08:27:00,rvs,19.96
2024-04-11T08:28:00,rvs,19.97
2024-04-11T08:29:00,rvs,19.40
2024-04-11T08:30:00,rvs,15.56
2024-04-11T08:31:00,rvs,16.37
2024-04-11T08:32:00,rvs,16.55
2024-04-11T08:33:00,rvs,20.11
2024-04-11T08:34:00,rvs,14.89
2024-04-11T08:35:00,rvs,15.07
2024-04-11T08:36:00,rvs,11.15
2024-04-11T08:37:00,rvs,12.06
2024-04-11T08:38:00,rvs,12.10
2024-04-11T08:39:00,rvs,16.83
2024-04-11T08:40:00,rvs,16.56
2024-04-11T08:41:00,rvs,12.56
2024-04-11T08:42:00,rvs,17.84
2024-04-11T08:43:00,rvs,15.62
2024-04-11T08:44:00,rvs,16.79
2024-04-11T08:45:00,rvs,19.22
2024-04-11T08:46:00,rvs,23.34
2024-04-11T08:47:00,rvs,24.68
2024-04-11T08:48:00,rvs,23.39
2024-04-11T08:49:00,rvs,18.30
2024-04-11T08:50:00,rvs,15.01
2024-04-11T08:51:00,rvs,20.55
2024-04-11T08:52:00,rvs,19.69
2024-04-11T08:53:00,rvs,24.07
2024-04-11T08:54:00,rvs,23.40
2024-04-11T08:55:00,rvs,17.99
2024-04-11T08:56:00,rvs,17.60
2024-04-11T08:57:00,rvs,17.24
2024-04-11T08:58:00,rvs,17.20
2024-04-11T08:59:00,rvs,17.17
2024-04-11T09:00:00,rvs,17.64
2024-04-11T09:01:00,rvs,17.20
2024-04-11T09:02:00,rvs,17.53
2024-04-11T09:03:00,rvs,16.26
2024-04-11T09:04:00,rvs,28.98
2024-04-11T09:05:00,rvs,29.40
2024-04-11T09:06:00,rvs,29.11
2024-04-11T09:07:00,rvs,28.75
2024-04-11T09:08:00,rvs,28.25
2024-04-11T09:09:00,rvs,15.61
2024-04-11T09:10:00,rvs,15.78
2024-04-11T09:11:00,rvs,14.96
2024-04-11T09:12:00,rvs,18.96
2024-04-11T09:13:00,rvs,19.42
2024-04-11T09:14:00,rvs,19.39
2024-04-11T09:15:00,rvs,15.53
2024-04-11T09:16:00,rvs,16.59
2024-04-11T09:17:00,rvs,11.12
2024-04-11T09:18:00,rvs,13.53
2024-04-11T09:19:00,rvs,13.90
2024-04-11T09:20:00,rvs,15.09
2024-04-11T09:21:00,rvs,15.68
2024-04-11T09:22:00,rvs,16.98
2024-04-11T09:23:00,rvs,20.55
2024-04-11T09:24:00,rvs,20.08
2024-04-11T09:25:00,rvs,19.69
2024-04-11T09:26:00,rvs,18.86
2024-04-11T09:27:00,rvs,17.97
2024-04-11T09:28:00,rvs,19.13
2024-04-11T09:29:00,rvs,19.28
2024-04-11T09:30:00,rvs,15.16
2024-04-11T09:31:00,rvs,14.76
2024-04-11T09:32:00,rvs,9.70
2024-04-11T09:33:00,rvs,9.65
2024-04-11T09:34:00,rvs,9.70
2024-04-11T09:35:00,rvs,12.51
2024-04-11T09:36:00,rvs,10.08
2024-04-11T09:37:00,rvs,9.94
2024-04-11T09:38:00,rvs,10.79
2024-04-11T09:39:00,rvs,9.60
2024-04-11T09:40:00,rvs,11.54
2024-04-11T09:41:00,rvs,12.03
2024-04-11T09:42:00,rvs,12.63
2024-04-11T09:43:00,rvs,12.72
2024-04-11T09:44:00,rvs,12.77
2024-04-11T09:45:00,rvs,12.78
2024-04-11T09:46:00,rvs,14.54
2024-04-11T09:47:00,rvs,14.31
2024-04-11T09:48:00,rvs,10.54
2024-04-11T09:49:00,rvs,10.62
2024-04-11T09:50:00,rvs,10.14
2024-04-11T09:51:00,rvs,9.82
2024-04-11T09:52:00,rvs,9.83
2024-04-11T09:53:00,rvs,9.80
2024-04-11T09:54:00,rvs,9.97
2024-04-11T09:55:00,rvs,10.14
2024-04-11T09:56:00,rvs,11.88
2024-04-11T09:57:00,rvs,11.46
2024-04-11T09:58:00,rvs,10.32
2024-04-11T09:59:00,rvs,10.39
2024-04-11T10:00:00,rvs,8.91
2024-04-11T10:01:00,rvs,8.62
2024-04-11T10:02:00,rvs,8.63
2024-04-11T10:03:00,rvs,8.64
2024-04-11T10:04:00,rvs,8.64
2024-04-11T10:05:00,rvs,8.72
2024-04-11T10:06:00,rvs,9.00
2024-04-11T10:07:00,rvs,9.56
2024-04-11T10:08:00,rvs,10.51
2024-04-11T10:09:00,rvs,10.63
2024-04-11T10:10:00,rvs,10.54
2024-04-11T10:11:00,rvs,11.71
2024-04-11T10:12:00,rvs,12.02
2024-04-11T10:13:00,rvs,10.41
2024-04-11T10:14:00,rvs,10.58
2024-04-11T10:15:00,rvs,11.12
2024-04-11T10:16:00,rvs,10.47
2024-04-11T10:17:00,rvs,10.84
2024-04-11T10:18:00,rvs,10.06
2024-04-11T10:19:00,rvs,10.02
2024-04-11T10:20:00,rvs,9.82
2024-04-11T10:21:00,rvs,28.13
2024-04-11T10:22:00,rvs,9.61
2024-04-11T10:23:00,rvs,9.69
2024-04-11T10:24:00,rvs,9.93
2024-04-11T10:25:00,rvs,9.72
2024-04-11T10:26:00,rvs,9.83
2024-04-11T10:27:00,rvs,11.60
2024-04-11T10:28:00,rvs,10.93
2024-04-11T10:29:00,rvs,11.32
2024-04-11T10:30:00,rvs,9.86
2024-04-11T10:31:00,rvs,9.81
2024-04-11T10:32:00,rvs,11.76
2024-04-11T10:33:00,rvs,10.78
2024-04-11T10:34:00,rvs,12.49
2024-04-11T10:35:00,rvs,10.30
2024-04-11T10:36:00,rvs,12.01
2024-04-11T10:37:00,rvs,10.13
2024-04-11T10:38:00,rvs,10.10
2024-04-11T10:39:00,rvs,11.78
2024-04-11T10:40:00,rvs,10.06
2024-04-11T10:41:00,rvs,10.09
2024-04-11T10:42:00,rvs,9.76
2024-04-11T10:43:00,rvs,13.87
2024-04-11T10:44:00,rvs,14.88
2024-04-11T10:45:00,rvs,14.50
2024-04-11T10:46:00,rvs,13.65
2024-04-11T10:47:00,rvs,12.97
2024-04-11T10:48:00,rvs,13.03
2024-04-11T10:49:00,rvs,13.17
2024-04-11T10:50:00,rvs,8.62
2024-04-11T10:51:00,rvs,8.49
2024-04-11T10:52:00,rvs,9.48
2024-04-11T10:53:00,rvs,10.50
2024-04-11T10:54:00,rvs,8.53
2024-04-11T10:55:00,rvs,8.55
2024-04-11T10:56:00,rvs,8.52
2024-04-11T10:57:00,rvs,13.02
2024-04-11T10:58:00,rvs,14.21
2024-04-11T10:59:00,rvs,14.32
2024-04-11T11:00:00,rvs,10.54
2024-04-11T11:01:00,rvs,10.09
2024-04-11T11:02:00,rvs,9.01
2024-04-11T11:03:00,rvs,8.94
2024-04-11T11:04:00,rvs,8.88
2024-04-11T11:05:00,rvs,9.04
2024-04-11T11:06:00,rvs,8.91
2024-04-11T11:07:00,rvs,8.99
2024-04-11T11:08:00,rvs,26.02
2024-04-11T11:09:00,rvs,8.97
2024-04-11T11:10:00,rvs,8.72
2024-04-11T11:11:00,rvs,9.80
2024-04-11T11:12:00,rvs,9.88
2024-04-11T11:13:00,rvs,11.91
2024-04-11T11:14:00,rvs,10.04
2024-04-11T11:15:00,rvs,10.03
2024-04-11T11:16:00,rvs,9.02
2024-04-11T11:17:00,rvs,11.07
2024-04-11T11:18:00,rvs,9.44
2024-04-11T11:19:00,rvs,10.18
2024-04-11T11:20:00,rvs,13.05
2024-04-11T11:21:00,rvs,14.30
2024-04-11T11:22:00,rvs,15.92
2024-04-11T11:23:00,rvs,18.61
2024-04-11T11:24:00,rvs,17.87
2024-04-11T11:25:00,rvs,17.26
2024-04-11T11:26:00,rvs,16.63
2024-04-11T11:27:00,rvs,15.05
2024-04-11T11:28:00,rvs,15.01
2024-04-11T11:29:00,rvs,33.47
2024-04-11T11:30:00,rvs,14.61
2024-04-11T11:31:00,rvs,14.88
2024-04-11T11:32:00,rvs,14.08
2024-04-11T11:33:00,rvs,15.01
2024-04-11T11:34:00,rvs,10.22
2024-04-11T11:35:00,rvs,10.34
2024-04-11T11:36:00,rvs,11.95
2024-04-11T11:37:00,rvs,11.68
2024-04-11T11:38:00,rvs,10.08
2024-04-11T11:39:00,rvs,11.97
2024-04-11T11:40:00,rvs,10.08
2024-04-11T11:41:00,rvs,11.85
2024-04-11T11:42:00,rvs,9.30
2024-04-11T11:43:00,rvs,10.95
2024-04-11T11:44:00,rvs,8.91
2024-04-11T11:45:00,rvs,10.18
2024-04-11T11:46:00,rvs,9.00
2024-04-11T11:47:00,rvs,8.91
2024-04-11T11:48:00,rvs,8.99
2024-04-11T11:49:00,rvs,9.22
2024-04-11T11:50:00,rvs,8.58
2024-04-11T11:51:00,rvs,10.33
2024-04-11T11:52:00,rvs,9.55
2024-04-11T11:53:00,rvs,8.59
2024-04-11T11:54:00,rvs,8.84
2024-04-11T11:55:00,rvs,22.30
2024-04-11T11:56:00,rvs,21.97
2024-04-11T11:57:00,rvs,22.30
2024-04-11T11:58:00,rvs,24.54
2024-04-11T11:59:00,rvs,13.32
2024-04-11T12:00:00,rvs,15.30
2024-04-11T12:01:00,rvs,14.88
2024-04-11T12:02:00,rvs,14.64
2024-04-11T12:03:00,rvs,13.75
2024-04-11T12:04:00,rvs,16.48
2024-04-11T12:05:00,rvs,16.73
2024-04-11T12:06:00,rvs,14.61
2024-04-11T12:07:00,rvs,15.45
2024-04-11T12:08:00,rvs,15.14
2024-04-11T12:09:00,rvs,16.96
2024-04-11T12:10:00,rvs,16.97
2024-04-11T12:11:00,rvs,17.49
2024-04-11T12:12:00,rvs,17.08
2024-04-11T12:13:00,rvs,11.19
2024-04-11T12:14:00,rvs,9.46
2024-04-11T12:15:00,rvs,10.23
2024-04-11T12:16:00,rvs,13.15
2024-04-11T12:17:00,rvs,13.87
2024-04-11T12:18:00,rvs,15.75
2024-04-11T12:19:00,rvs,16.48
2024-04-11T12:20:00,rvs,21.18
2024-04-11T12:21:00,rvs,21.26
2024-04-11T12:22:00,rvs,21.55
2024-04-11T12:23:00,rvs,20.57
2024-04-11T12:24:00,rvs,14.58
2024-04-11T12:25:00,rvs,13.59
2024-04-11T12:26:00,rvs,14.67
2024-04-11T12:27:00,rvs,14.97
2024-04-11T12:28:00,rvs,9.33
2024-04-11T12:29:00,rvs,9.86
2024-04-11T12:30:00,rvs,13.39
2024-04-11T12:31:00,rvs,14.54
2024-04-11T12:32:00,rvs,15.79
2024-04-11T12:33:00,rvs,16.36
2024-04-11T12:34:00,rvs,15.01
2024-04-11T12:35:00,rvs,14.78
2024-04-11T12:36:00,rvs,14.58
2024-04-11T12:37:00,rvs,9.18
2024-04-11T12:38:00,rvs,9.47
2024-04-11T12:39:00,rvs,9.11
2024-04-11T12:40:00,rvs,9.59
2024-04-11T12:41:00,rvs,13.80
2024-04-11T12:42:00,rvs,13.83
2024-04-11T12:43:00,rvs,14.30
2024-04-11T12:44:00,rvs,9.50
2024-04-11T12:45:00,rvs,10.03
2024-04-11T12:46:00,rvs,9.34
2024-04-11T12:47:00,rvs,12.14
2024-04-11T12:48:00,rvs,12.58
2024-04-11T12:49:00,rvs,11.57
2024-04-11T12:50:00,rvs,9.97
2024-04-11T12:51:00,rvs,10.19
2024-04-11T12:52:00,rvs,10.00
2024-04-11T12:53:00,rvs,11.23
2024-04-11T12:54:00,rvs,9.78
2024-04-11T12:55:00,rvs,11.87
2024-04-11T12:56:00,rvs,11.90
2024-04-11T12:57:00,rvs,12.18
2024-04-11T12:58:00,rvs,12.47
2024-04-11T12:59:00,rvs,11.69
2024-04-11T13:00:00,rvs,11.95
2024-04-11T13:01:00,rvs,10.32
2024-04-11T13:02:00,rvs,10.19
2024-04-11T13:03:00,rvs,13.19
2024-04-11T13:04:00,rvs,14.48
2024-04-11T13:05:00,rvs,17.69
2024-04-11T13:06:00,rvs,20.60
2024-04-11T13:07:00,rvs,24.80
2024-04-11T13:08:00,rvs,24.96
2024-04-11T13:09:00,rvs,25.83
2024-04-11T13:10:00,rvs,23.53
2024-04-11T13:11:00,rvs,19.10
2024-04-11T13:12:00,rvs,14.65
2024-04-11T13:13:00,rvs,14.61
2024-04-11T13:14:00,rvs,16.86
2024-04-11T13:15:00,rvs,14.68
2024-04-11T13:16:00,rvs,14.85
2024-04-11T13:17:00,rvs,14.44
2024-04-11T13:18:00,rvs,14.04
2024-04-11T13:19:00,rvs,14.10
2024-04-11T13:20:00,rvs,15.90
2024-04-11T13:21:00,rvs,14.21
2024-04-11T13:22:00,rvs,13.34
2024-04-11T13:23:00,rvs,13.97
2024-04-11T13:24:00,rvs,13.46
2024-04-11T13:25:00,rvs,13.49
2024-04-11T13:26:00,rvs,13.40
2024-04-11T13:27:00,rvs,13.63